* Astronomy

Members Login
Username 
 
Password 
    Remember Me  
Post Info TOPIC: Asteroid 2011 YZ62


L

Posts: 131433
Date:
Asteroid 2011 YZ62
Permalink  
 


Orbital elements:
2011 YZ62                                                Earth MOID = 0.0638 AU
Epoch 2012 Mar. 14.0 TT = JDT 2456000.5                 MPC
M  31.38843              (2000.0)            P               Q
n   0.36801505     Peri.   64.46993     +0.06397647     -0.99788674
a   1.9285267      Node    21.87096     +0.90430788     +0.05315489
e   0.4602428      Incl.    1.74761     +0.42205956     +0.03737125
P   2.68           H   25.7           G   0.15           U   7

MPEC 2012 - A11



__________________
Page 1 of 1  sorted by
 
Quick Reply

Please log in to post quick replies.



Create your own FREE Forum
Report Abuse
Powered by ActiveBoard